Location: ASU Dark Sky Observatory
(36.2504°N, 81.4125°W)
Time: 19:49:53
(UTC-04:00)

Amateur Radio Satellites - All Passes

Search period start: 24 October 2014 19:19
Search period end: 25 October 2014 19:19
Location: ASU Dark Sky Observatory, 36.2504°N, 81.4125°W

Satellite Date Start Highest point End Downlink Frequencies (MHz)
Time Altitude Azimuth
ISS 24 Oct 19:40:22 19:43:17 27° 33° (NNE) 19:46:11 145.800 FM
JAS-2 24 Oct 19:48:52 19:52:15 16° 272° (W) 19:55:52 435.800 - 435.900 CW/SSB, 435.910 FM
SO-67 24 Oct 20:00:21 20:03:43 60° 260° (W) 20:07:08 435.3500 MHz FM
HO-68 24 Oct 20:14:53 20:20:11 23° 60° (ENE) 20:25:30 435.675 MHz FM
KITSAT 1 24 Oct 20:35:15 20:41:09 21° 42° (NE) 20:47:01 435.175 FM
STRAND 1 24 Oct 20:38:04 20:43:10 64° 286° (WNW) 20:48:14 ?
SO-50 24 Oct 21:03:04 21:03:53 10° 41° (NE) 21:04:42 436.795 FM
AO-40 24 Oct 21:13:17 23:17:03 34° 213° (SSW) 03:47:39 Beacon 2401.320
ISS 24 Oct 21:17:03 21:19:55 27° 229° (SW) 21:22:47 145.800 FM
RS-15 24 Oct 21:37:43 21:47:03 33° 105° (ESE) 21:56:13 29.354 - 29.394 USB, Beacon 29.352 USB
ZACube-1 24 Oct 21:41:31 21:43:00 11° 65° (ENE) 21:44:28 437.345 MHz
UKube-1 24 Oct 21:44:20 21:48:12 32° 71° (ENE) 21:52:05 145.840 MHz, 145.915 MHz
HO-68 24 Oct 22:00:12 22:07:16 64° 257° (WSW) 22:14:24 435.675 MHz FM
FUNcube-1 24 Oct 22:23:19 22:27:25 33° 72° (ENE) 22:31:29 145.950 - 145.970 MHz USB
Oscar 11 24 Oct 22:25:28 22:29:48 87° 77° (ENE) 22:34:09 145.825 FM, Beacon 2401.500 USB
KITSAT 1 24 Oct 22:29:29 22:37:36 89° 243° (WSW) 22:45:41 435.175 FM
SO-50 24 Oct 22:40:24 22:45:16 73° 59° (ENE) 22:50:08 436.795 FM
ZACube-1 24 Oct 23:14:15 23:18:49 65° 259° (W) 23:23:21 437.345 MHz
MaSat-1 24 Oct 23:16:44 23:19:08 15° 105° (ESE) 23:21:26 437.345 MHz
UKube-1 24 Oct 23:21:19 23:24:25 19° 265° (W) 23:27:31 145.840 MHz, 145.915 MHz
RS-15 24 Oct 23:47:46 23:58:38 62° 305° (NW) 00:09:28 29.354 - 29.394 USB, Beacon 29.352 USB
FUNcube-1 25 Oct 00:00:23 00:03:48 21° 265° (W) 00:07:12 145.950 - 145.970 MHz USB
UOSAT-12 25 Oct 00:04:42 00:09:15 46° 56° (NE) 00:13:42 437.025 FM, 437.400 FM
SO-50 25 Oct 00:23:41 00:25:12 11° 253° (WSW) 00:26:43 436.795 FM
KITSAT 1 25 Oct 00:27:39 00:31:52 15° 259° (W) 00:36:04 435.175 FM
MaSat-1 25 Oct 00:50:37 00:54:32 38° 296° (WNW) 00:58:07 437.345 MHz
UOSAT-12 25 Oct 01:45:59 01:48:59 17° 251° (WSW) 01:51:56 437.025 FM, 437.400 FM
JAS-1B 25 Oct 01:55:06 02:00:27 22° 96° (E) 02:06:26 435.800 - 435.900 CW/SSB
Oscar 16 25 Oct 02:03:50 02:07:45 22° 95° (E) 02:11:39 437.025 USB, Beacon 2401.1428
RS-15 25 Oct 02:06:32 02:13:49 19° 333° (NNW) 02:21:11 29.354 - 29.394 USB, Beacon 29.352 USB
Uribyol 2 25 Oct 02:24:45 02:27:18 14° 92° (E) 02:29:51 436.500 FM
ITAMSAT 1 25 Oct 02:30:31 02:33:24 15° 92° (E) 02:36:17 435.822 SSB
Oscar 10/S400 25 Oct 02:38:01 03:31:22 16° 250° (WSW) 05:09:13 145.825 - 145.975 CW/USB, Beacon 145.810 USB
Gurwin Techsat 1B 25 Oct 02:51:38 02:53:38 12° 91° (E) 02:55:38 435.225 FM
Oscar 19 25 Oct 02:56:20 03:01:28 74° 102° (ESE) 03:06:33 437.125 CW, 437.150 USB
TMSAT-1 25 Oct 03:03:17 03:04:46 11° 90° (E) 03:06:14 436.925 FM
AO-27 25 Oct 03:14:29 03:19:27 43° 99° (E) 03:24:23 436.795 MHz FM
AO-Echo 25 Oct 03:36:06 03:41:27 86° 284° (WNW) 03:46:45 ?
Sapphire 25 Oct 03:41:35 03:46:14 30° 108° (ESE) 03:50:54 437.095 MHz 1200 baud AX-25 AFSK
Oscar 16 25 Oct 03:42:29 03:47:11 38° 289° (WNW) 03:51:52 437.025 USB, Beacon 2401.1428
JAS-1B 25 Oct 03:44:29 03:51:09 62° 287° (WNW) 03:59:08 435.800 - 435.900 CW/SSB
Uribyol 2 25 Oct 04:02:00 04:07:09 61° 287° (WNW) 04:12:14 436.500 FM
PCSat 25 Oct 04:03:23 04:08:37 53° 112° (ESE) 04:13:53 145.825 MHz
ITAMSAT 1 25 Oct 04:08:06 04:13:13 57° 287° (WNW) 04:18:18 435.822 SSB
RS-15 25 Oct 04:27:39 04:32:45 14° 11° (N) 04:37:55 29.354 - 29.394 USB, Beacon 29.352 USB
Gurwin Techsat 1B 25 Oct 04:28:45 04:34:03 70° 285° (WNW) 04:39:19 435.225 FM
OPAL 25 Oct 04:30:12 04:33:03 15° 62° (ENE) 04:35:54 ?
Oscar 19 25 Oct 04:38:12 04:40:07 12° 298° (WNW) 04:42:03 437.125 CW, 437.150 USB
TMSAT-1 25 Oct 04:39:52 04:45:10 75° 285° (WNW) 04:50:27 436.925 FM
AO-27 25 Oct 04:54:48 04:58:37 21° 294° (WNW) 05:02:26 436.795 MHz FM
JAS-2 25 Oct 05:15:09 05:18:33 13° 87° (E) 05:21:56 435.800 - 435.900 CW/SSB, 435.910 FM
AO-7 25 Oct 05:20:15 05:28:19 51° 102° (ESE) 05:36:21 29.400 - 29.500 MHz
Uosat F 25 Oct 05:21:29 05:26:10 37° 98° (E) 05:30:47 435.120 FM
Sapphire 25 Oct 05:24:41 05:29:31 33° 304° (NW) 05:34:25 437.095 MHz 1200 baud AX-25 AFSK
PCSat 25 Oct 05:48:20 05:52:20 21° 309° (NW) 05:56:23 145.825 MHz
OPAL 25 Oct 06:06:18 06:11:24 62° 257° (WSW) 06:16:28 ?
STRAND 1 25 Oct 06:14:47 06:17:44 16° 64° (ENE) 06:20:41 ?
Hamsat 25 Oct 06:24:22 06:27:32 20° 95° (E) 06:30:41 145.90 MHz
RS-15 25 Oct 06:40:03 06:50:01 36° 44° (NE) 07:00:17 29.354 - 29.394 USB, Beacon 29.352 USB
JAS-2 25 Oct 06:56:36 07:04:28 80° 103° (ESE) 07:12:13 435.800 - 435.900 CW/SSB, 435.910 FM
Uosat F 25 Oct 07:00:48 07:04:41 23° 293° (WNW) 07:08:33 435.120 FM
Saudisat 1A 25 Oct 07:11:51 07:15:15 22° 111° (ESE) 07:18:40 436.775 MHz
AO-7 25 Oct 07:13:34 07:20:44 34° 299° (WNW) 07:27:54 29.400 - 29.500 MHz
SO-67 25 Oct 07:28:34 07:29:09 10° 92° (E) 07:29:45 435.3500 MHz FM
PANSAT 25 Oct 07:45:28 07:47:59 17° 166° (SSE) 07:50:31 not established
STRAND 1 25 Oct 07:51:21 07:56:23 58° 259° (W) 08:01:28 ?
Hamsat 25 Oct 07:59:53 08:03:26 27° 289° (WNW) 08:07:01 145.90 MHz
JAS-2 25 Oct 08:43:10 08:48:35 21° 299° (WNW) 08:54:01 435.800 - 435.900 CW/SSB, 435.910 FM
Saudisat 1A 25 Oct 08:50:41 08:54:37 32° 307° (NW) 08:58:35 436.775 MHz
RS-15 25 Oct 08:52:03 09:03:10 69° 246° (WSW) 09:14:47 29.354 - 29.394 USB, Beacon 29.352 USB
SO-67 25 Oct 08:59:06 09:02:14 34° 286° (WNW) 09:05:22 435.3500 MHz FM
PANSAT 25 Oct 09:24:26 09:27:37 25° 178° (S) 09:30:48 not established
HO-68 25 Oct 09:31:23 09:37:28 29° 96° (E) 09:43:29 435.675 MHz FM
Oscar 11 25 Oct 10:16:40 10:19:43 19° 94° (E) 10:22:46 145.825 FM, Beacon 2401.500 USB
MaSat-1 25 Oct 10:39:27 10:41:27 21° 253° (WSW) 10:43:21 437.345 MHz
KITSAT 1 25 Oct 11:03:29 11:07:55 16° 101° (E) 11:12:22 435.175 FM
PANSAT 25 Oct 11:04:26 11:07:16 20° 191° (S) 11:10:06 not established
ZACube-1 25 Oct 11:06:46 11:10:25 28° 96° (E) 11:14:01 437.345 MHz
RS-15 25 Oct 11:09:59 11:13:30 12° 263° (W) 11:17:04 29.354 - 29.394 USB, Beacon 29.352 USB
UKube-1 25 Oct 11:10:33 11:14:56 88° 103° (ESE) 11:19:17 145.840 MHz, 145.915 MHz
HO-68 25 Oct 11:18:28 11:25:18 48° 292° (WNW) 11:32:07 435.675 MHz FM
FUNcube-1 25 Oct 11:50:57 11:55:12 82° 283° (WNW) 11:59:21 145.950 - 145.970 MHz USB
Oscar 11 25 Oct 11:52:07 11:55:55 31° 289° (WNW) 11:59:43 145.825 FM, Beacon 2401.500 USB
ISS 25 Oct 12:20:29 12:23:29 32° 132° (SE) 12:26:31 145.800 FM
Sapphire 25 Oct 12:32:39 12:36:00 16° 48° (NE) 12:39:20 437.095 MHz 1200 baud AX-25 AFSK
Oscar 10/S400 25 Oct 12:37:31 12:59:11 32° 152° (SSE) 13:15:38 145.825 - 145.975 CW/USB, Beacon 145.810 USB
ZACube-1 25 Oct 12:43:31 12:46:38 20° 291° (WNW) 12:49:42 437.345 MHz
JAS-1B 25 Oct 12:43:37 12:44:30 10° 59° (ENE) 12:45:22 435.800 - 435.900 CW/SSB
SO-50 25 Oct 12:53:02 12:57:13 42° 114° (ESE) 13:01:32 436.795 FM
KITSAT 1 25 Oct 12:54:07 13:02:13 88° 297° (WNW) 13:10:21 435.175 FM
PCSat 25 Oct 12:54:21 12:58:51 26° 53° (NE) 13:03:18 145.825 MHz
Oscar 16 25 Oct 13:18:21 13:22:32 26° 68° (ENE) 13:26:42 437.025 USB, Beacon 2401.1428
Uribyol 2 25 Oct 13:40:00 13:43:21 18° 64° (ENE) 13:46:42 436.500 FM
ITAMSAT 1 25 Oct 13:45:59 13:49:30 19° 65° (ENE) 13:53:03 435.822 SSB
ISS 25 Oct 13:57:26 14:00:12 24° 328° (NNW) 14:02:59 145.800 FM
Gurwin Techsat 1B 25 Oct 14:09:51 14:13:04 16° 64° (ENE) 14:16:16 435.225 FM
Oscar 19 25 Oct 14:10:31 14:15:40 82° 76° (ENE) 14:20:50 437.125 CW, 437.150 USB
UOSAT-12 25 Oct 14:13:56 14:17:41 25° 111° (ESE) 14:21:31 437.025 FM, 437.400 FM
Sapphire 25 Oct 14:14:33 14:19:58 72° 246° (WSW) 14:25:21 437.095 MHz 1200 baud AX-25 AFSK
TMSAT-1 25 Oct 14:20:58 14:23:55 15° 63° (ENE) 14:26:52 436.925 FM
JAS-1B 25 Oct 14:28:20 14:34:26 87° 256° (WSW) 14:40:07 435.800 - 435.900 CW/SSB
AO-27 25 Oct 14:29:59 14:35:00 51° 72° (ENE) 14:40:03 436.795 MHz FM
AO-7 25 Oct 14:32:39 14:33:16 10° 47° (NE) 14:33:53 29.400 - 29.500 MHz
SO-50 25 Oct 14:34:36 14:37:57 20° 312° (NW) 14:41:23 436.795 FM
PCSat 25 Oct 14:37:18 14:42:22 41° 250° (WSW) 14:47:23 145.825 MHz
AO-Echo 25 Oct 14:46:23 14:51:15 88° 257° (WSW) 14:56:18 ?
KITSAT 1 25 Oct 14:52:56 14:58:43 21° 318° (NW) 15:04:33 435.175 FM
Oscar 16 25 Oct 14:57:02 15:01:41 34° 262° (W) 15:06:21 437.025 USB, Beacon 2401.1428
Uribyol 2 25 Oct 15:17:16 15:22:21 53° 260° (W) 15:27:28 436.500 FM
ITAMSAT 1 25 Oct 15:23:34 15:28:35 49° 260° (W) 15:33:38 435.822 SSB
Saudisat 1A 25 Oct 15:42:06 15:43:24 11° 43° (NE) 15:44:43 436.775 MHz
Gurwin Techsat 1B 25 Oct 15:47:18 15:52:30 58° 259° (W) 15:57:45 435.225 FM
UOSAT-12 25 Oct 15:53:31 15:57:40 32° 307° (NW) 16:01:55 437.025 FM, 437.400 FM
TMSAT-1 25 Oct 15:58:01 16:03:15 63° 259° (W) 16:08:32 436.925 FM
AO-27 25 Oct 16:11:28 16:14:45 17° 267° (W) 16:18:04 436.795 MHz FM
AO-7 25 Oct 16:16:14 16:24:12 55° 67° (ENE) 16:32:12 29.400 - 29.500 MHz
Uosat F 25 Oct 16:32:13 16:36:51 39° 71° (ENE) 16:41:30 435.120 FM
JAS-2 25 Oct 17:07:17 17:12:00 25° 63° (ENE) 17:17:11 435.800 - 435.900 CW/SSB, 435.910 FM
Hamsat 25 Oct 17:17:14 17:18:31 11° 66° (ENE) 17:19:47 145.90 MHz
Saudisat 1A 25 Oct 17:19:08 17:23:35 87° 241° (WSW) 17:27:59 436.775 MHz
AO-7 25 Oct 18:10:19 18:17:14 30° 263° (W) 18:24:14 29.400 - 29.500 MHz
Uosat F 25 Oct 18:12:01 18:15:43 21° 265° (W) 18:19:27 435.120 FM
OPAL 25 Oct 18:19:00 18:23:42 42° 101° (E) 18:28:21 ?
Hamsat 25 Oct 18:49:50 18:53:58 54° 260° (W) 18:58:05 145.90 MHz
JAS-2 25 Oct 18:51:01 18:56:35 47° 263° (W) 19:02:56 435.800 - 435.900 CW/SSB, 435.910 FM
ISS 25 Oct 18:51:33 18:53:56 18° 28° (NNE) 18:56:19 145.800 FM
